Theta_e
295 295 296 296 297 297 297 298 298 299 299 299 300 300 300 300 300 299 298 298 298 298 297 297 297 297 297 296 296 296 295 295 295 295 294 294 294 294 294 295 296 297
294 294 294 295 295 295 295 296 296 297 297 297 298 298 298 299 299 299 298 298 297 297 297 297 297 297 296 296 296 296 295 295 295 295 294 294 294 294 294 294 295 295
293 293 294 294 294 294 294 294 295 295 295 296 296 296 297 297 298 298 298 297 297 297 297 296 296 296 296 296 295 295 295 295 294 294 294 294 294 294 293 293 294 294
291 291 292 292 293 293 293 294 294 294 294 294 295 295 295 296 296 297 297 297 296 296 296 296 296 296 296 296 295 295 295 294 294 294 294 294 294 294 293 293 293 294
290 290 291 291 291 292 292 293 293 293 293 293 293 293 294 294 295 295 295 296 296 296 295 295 295 295 295 295 295 295 294 294 294 294 293 293 293 293 293 293 293 293
290 290 290 290 291 291 291 291 291 292 292 292 292 293 293 293 293 294 294 295 295 295 295 295 295 295 295 295 294 294 294 294 294 293 293 293 293 293 293 293 293 292
289 289 289 289 290 290 290 290 290 291 291 291 292 292 292 292 292 292 293 293 294 294 294 294 294 294 294 294 294 294 294 293 293 293 293 292 292 292 292 292 292 292
288 288 288 288 288 289 289 289 289 290 290 290 290 291 291 291 292 292 292 292 293 293 294 294 294 294 294 294 294 293 293 293 293 293 292 292 292 292 292 292 292 292
288 287 287 286 287 287 287 287 288 288 288 288 288 289 289 290 291 291 291 291 291 292 292 293 293 293 293 293 293 293 293 293 293 292 292 292 291 292 292 292 291 291
288 287 287 286 286 286 286 286 286 286 286 287 287 287 287 288 289 290 290 291 291 291 291 292 292 292 292 292 292 292 292 292 292 292 292 292 292 291 291 292 291 291
288 288 287 286 286 286 286 285 285 285 285 285 286 286 286 286 287 288 289 290 290 290 291 291 291 291 291 292 292 292 292 291 292 292 291 292 291 291 291 291 291 291
288 288 288 287 286 286 286 285 285 284 284 284 284 285 285 285 286 287 287 288 289 289 290 290 290 290 291 291 291 291 291 291 291 291 291 291 291 291 291 291 291 291
288 288 288 288 287 287 286 286 285 284 284 284 284 284 284 284 285 285 286 286 287 288 289 289 289 289 290 290 290 290 291 291 290 290 290 291 290 290 290 290 290 291
287 287 287 287 287 286 286 286 286 285 284 284 284 284 284 284 284 284 284 285 286 286 287 288 289 289 289 289 289 290 290 290 290 290 290 290 290 290 290 290 290 290
286 286 286 286 286 285 285 286 286 286 285 284 284 283 284 283 284 284 284 284 284 285 286 286 287 288 288 289 289 289 289 289 289 289 289 289 289 289 289 289 289 289
285 285 285 285 285 284 284 285 286 286 285 284 284 284 284 283 283 284 284 284 284 284 285 285 286 286 287 288 288 289 289 289 289 289 289 289 289 289 289 289 289 289
284 284 284 284 283 283 283 283 284 285 285 284 283 283 283 283 283 283 284 284 285 284 285 285 285 285 286 287 287 288 288 288 288 288 288 288 288 289 289 289 289 289
283 283 283 283 283 282 282 282 282 283 284 283 283 283 282 282 282 283 283 284 284 284 285 285 285 285 285 285 286 286 287 288 288 288 288 288 288 288 288 288 288 288
283 283 283 283 282 282 281 281 281 282 283 282 282 282 281 281 281 282 282 283 284 284 284 284 284 284 284 284 284 285 285 287 288 288 288 288 288 288 288 288 288 288
282 282 282 282 282 281 281 280 280 281 282 282 281 280 280 280 280 280 281 282 284 284 284 284 284 284 283 283 283 284 284 286 287 288 288 288 288 288 288 288 288 288
282 282 282 281 281 281 280 280 279 279 280 281 280 279 279 278 279 279 280 281 282 283 283 283 283 283 283 283 283 283 283 285 286 287 288 288 288 288 288 288 288 288
281 281 281 281 281 280 279 279 278 278 279 279 278 278 277 277 277 278 279 280 280 281 282 283 283 283 283 283 283 283 283 284 285 286 287 288 288 288 288 288 288 288
281 281 280 280 280 280 279 278 278 277 278 278 277 276 276 276 276 277 277 278 279 280 281 282 282 282 282 282 282 282 283 284 285 285 286 287 287 287 288 288 288 288
280 280 279 279 279 279 278 277 276 276 277 276 275 275 275 275 275 275 276 277 278 278 279 280 281 281 282 282 282 282 283 284 284 285 286 286 286 287 287 288 288 288
278 278 278 278 278 277 277 276 275 275 276 275 274 274 274 274 274 274 275 275 276 276 277 278 279 280 280 281 281 281 282 283 284 285 285 286 286 286 287 287 288 288
276 276 276 276 276 276 275 274 274 274 274 273 273 273 273 272 273 273 273 274 274 274 275 276 277 277 278 279 280 281 282 283 283 284 285 285 286 286 287 287 287 288
Wind_Speed
19 15 13 12 10 11 11 12 12 13 14 14 14 15 15 16 15 15 17 20 20 22 24 24 25 26 28 30 31 32 33 34 36 37 38 41 42 41 41 41 39 36
23 20 18 15 12 11 11 11 11 12 13 14 15 16 17 18 17 15 16 19 21 22 23 24 24 25 26 28 30 32 33 34 35 36 37 38 40 41 42 42 42 41
24 23 22 20 18 16 15 13 12 12 12 14 14 15 17 18 19 17 16 19 21 21 22 22 23 24 25 27 29 30 32 34 34 34 35 38 38 39 41 41 41 42
25 24 22 22 23 21 19 17 16 14 14 15 15 15 17 17 18 18 18 19 20 20 21 22 23 24 25 27 27 29 31 33 34 33 33 36 38 39 39 39 40 41
21 22 22 23 23 22 21 21 20 18 17 16 15 16 16 16 17 18 18 19 19 20 21 22 23 24 25 26 27 28 30 30 31 32 33 34 36 38 39 38 39 40
16 19 20 21 21 21 21 21 20 20 20 18 17 16 16 16 16 17 17 18 18 19 20 21 21 22 23 25 26 28 29 29 30 31 33 33 33 35 37 38 38 39
17 19 20 21 20 19 19 19 19 18 18 19 18 17 17 17 17 17 17 17 18 19 19 20 21 22 23 23 25 26 27 28 29 30 32 33 33 33 34 36 37 37
19 20 21 22 21 19 19 19 18 18 18 20 19 19 18 18 17 17 17 17 17 18 19 20 20 21 22 23 24 25 26 27 28 29 30 32 33 34 34 34 36 38
21 21 21 22 21 20 19 19 18 18 20 21 21 21 21 19 18 17 17 18 18 18 19 19 20 20 21 22 23 24 25 27 28 29 31 31 32 34 34 34 35 38
19 20 21 23 22 22 22 21 20 20 20 20 20 22 23 22 20 19 17 17 17 18 19 19 20 20 21 22 23 24 26 27 27 28 31 32 33 33 33 34 35 37
18 18 19 21 22 23 24 24 24 23 23 22 21 21 23 23 22 20 19 17 17 18 19 19 20 20 21 22 22 23 25 26 27 28 30 31 33 34 34 34 35 37
16 17 17 17 18 20 22 24 26 26 27 26 23 22 22 21 21 20 20 19 19 18 18 19 20 21 21 22 23 23 24 26 27 28 29 31 32 33 34 35 36 38
15 16 16 15 16 17 19 21 23 26 27 27 26 26 24 22 21 21 21 21 20 19 19 19 20 20 21 23 23 24 24 26 27 28 29 31 32 33 34 35 37 38
14 15 15 15 17 19 20 20 21 24 26 27 28 28 27 26 25 24 23 22 21 20 20 20 19 19 20 22 24 25 25 25 27 28 29 31 32 34 35 36 37 38
17 18 16 15 17 19 21 21 21 23 25 26 28 28 28 29 28 26 26 25 23 22 21 20 19 20 20 20 22 24 25 26 27 28 28 30 31 33 34 36 37 37
19 21 20 19 20 19 21 22 22 23 24 25 28 28 27 27 28 28 29 28 26 24 23 22 21 20 20 20 21 23 25 27 29 30 30 31 31 32 33 35 36 36
22 22 22 25 26 25 25 25 24 24 25 26 28 28 28 28 27 27 28 27 26 26 25 24 23 21 20 20 20 21 23 26 29 31 32 33 33 33 33 34 34 35
26 25 25 27 28 28 28 28 27 27 27 27 28 28 29 30 30 28 28 27 27 27 26 26 26 25 24 23 23 23 22 24 27 30 31 33 34 34 34 34 34 34
26 27 28 29 29 29 30 29 29 28 28 28 29 29 29 29 30 30 30 29 27 26 27 28 29 29 29 28 28 27 25 23 25 29 30 32 33 34 35 35 34 34
26 27 29 30 30 31 31 31 30 30 28 27 28 30 30 30 31 32 32 31 29 27 28 30 31 33 33 33 32 30 27 24 24 27 30 31 33 34 35 36 36 35
26 27 28 29 30 31 32 33 33 32 30 29 29 30 30 31 33 33 32 32 32 31 31 32 34 37 38 37 35 34 30 26 25 27 29 31 33 34 35 36 37 36
26 26 28 29 29 30 31 33 34 34 33 33 33 32 31 31 32 32 32 33 34 33 32 34 36 38 37 36 36 35 32 28 26 27 28 30 32 34 34 36 36 36
26 26 28 28 28 29 31 32 33 34 34 34 35 34 33 32 33 33 33 33 34 34 33 34 38 39 38 36 36 36 32 28 27 28 28 30 32 34 34 34 36 36
27 27 28 29 30 31 31 32 33 34 33 33 33 33 35 35 33 34 35 34 33 35 35 35 38 42 42 40 40 39 34 29 28 27 28 30 32 33 33 34 36 38
28 29 30 31 31 32 33 33 34 34 32 30 30 30 31 32 31 33 37 37 36 37 37 36 38 42 45 44 43 41 36 31 28 26 26 29 31 31 32 33 34 36
30 31 32 33 34 34 35 34 34 33 32 31 32 30 29 30 32 34 37 39 39 39 39 40 40 42 46 47 45 42 38 34 30 27 27 29 30 29 29 31 33 34
Wind_Direction
30 23 14 6 359 352 343 334 328 320 314 309 304 300 296 290 278 261 259 263 257 251 250 246 242 241 240 238 235 233 233 233 232 232 230 229 228 228 227 226 225 224
37 33 30 23 12 1 351 339 330 322 315 310 308 305 300 296 289 271 263 271 268 260 257 251 245 243 241 239 237 236 236 235 235 234 233 232 231 230 229 228 228 227
37 34 33 32 28 20 10 358 341 330 324 319 315 311 303 296 292 280 271 275 274 267 261 254 249 245 243 242 240 239 238 236 236 236 234 234 233 232 232 231 231 231
34 32 31 32 33 29 22 15 3 349 338 329 320 312 304 296 292 286 281 279 275 270 264 258 255 249 245 245 242 240 240 239 238 237 237 237 235 234 234 234 234 234
30 30 29 29 30 28 25 22 15 7 357 342 327 316 308 302 297 292 288 285 279 274 269 263 258 254 250 247 244 242 242 242 240 239 239 241 238 236 236 235 235 235
23 25 25 25 25 24 22 19 16 13 8 358 347 334 323 314 307 300 294 290 284 279 274 268 262 257 254 250 246 245 244 242 241 240 239 240 241 240 237 236 236 236
20 21 21 21 21 20 18 14 11 9 5 3 358 351 342 331 321 311 303 297 290 283 278 272 266 261 258 252 249 249 248 245 243 241 238 238 241 241 239 239 238 238
18 19 19 19 19 16 12 8 6 2 359 0 360 357 353 345 335 324 313 305 297 289 283 277 272 267 262 257 252 251 250 248 245 243 241 240 239 240 239 239 239 239
13 13 14 15 16 14 9 6 3 359 358 358 357 357 357 353 346 336 324 313 305 297 289 282 276 271 266 261 257 255 252 250 248 245 244 243 242 242 240 238 239 240
4 6 7 8 8 6 5 4 3 0 358 355 353 354 356 355 351 346 337 324 313 304 297 289 283 277 271 265 261 259 257 255 253 250 248 246 246 247 245 242 241 242
351 354 357 359 360 358 356 357 357 358 358 357 353 350 351 351 348 345 341 333 322 312 304 296 290 284 278 273 268 265 263 259 257 255 253 252 251 251 249 247 244 243
340 341 342 346 349 350 349 349 350 351 351 353 351 348 347 345 342 338 334 330 325 318 309 303 297 290 285 280 275 271 269 265 261 260 258 257 256 255 253 251 248 247
333 331 329 329 332 335 337 340 342 343 344 345 345 344 343 341 337 334 331 328 324 319 314 308 303 295 288 284 279 277 274 269 266 265 263 260 259 259 257 255 252 251
327 325 321 320 323 326 326 326 328 332 335 337 338 338 338 337 335 333 331 328 322 318 315 310 305 298 292 286 282 280 278 273 270 269 266 263 262 262 260 258 256 254
326 323 318 315 318 321 322 320 318 319 324 327 330 332 332 333 333 330 329 328 323 319 315 311 305 299 295 291 285 282 279 275 272 271 269 267 265 264 262 260 258 256
324 322 318 315 315 317 319 318 315 313 315 318 322 323 323 325 327 325 325 324 322 319 315 311 306 302 299 296 290 285 281 277 274 270 269 268 267 265 264 262 260 259
319 318 315 313 313 314 316 317 315 311 309 312 315 316 316 318 319 319 319 318 316 315 313 311 308 305 302 298 294 290 284 278 274 271 269 267 265 264 264 262 261 261
314 314 312 309 309 309 311 314 314 309 305 306 310 310 311 313 312 312 312 311 309 308 308 308 308 308 307 303 299 296 290 281 275 272 268 265 263 262 262 262 262 262
307 308 307 305 304 304 306 308 309 306 301 300 304 305 305 306 307 307 306 305 304 303 302 303 304 306 309 308 305 302 297 288 278 272 268 265 263 261 261 261 261 261
299 298 298 298 298 300 302 303 305 303 298 295 300 302 301 300 302 303 303 301 298 296 298 299 298 301 305 307 307 306 301 291 281 275 269 265 263 262 260 260 260 259
293 292 291 291 291 293 295 297 299 301 296 292 296 298 296 297 298 299 298 297 295 294 293 293 293 297 302 304 305 307 305 296 286 279 272 267 265 263 260 260 259 258
289 288 287 286 283 285 289 291 294 296 293 291 295 295 293 293 294 293 293 292 292 292 290 288 289 293 296 297 299 302 303 297 288 282 276 270 268 266 263 260 259 257
288 286 286 284 279 279 284 287 289 292 289 288 292 294 292 291 291 290 289 288 288 287 285 285 287 288 289 290 291 293 293 290 286 282 277 273 271 269 266 263 260 257
289 288 287 286 280 279 283 287 288 288 283 283 288 290 289 289 289 289 288 286 284 283 282 282 283 285 286 285 285 286 285 281 279 276 273 273 273 272 268 265 263 260
291 291 290 288 285 282 285 288 289 286 280 280 285 284 283 285 286 286 286 285 283 282 281 281 280 281 283 283 282 282 280 276 273 269 266 268 269 269 268 266 264 262
291 292 292 291 289 287 288 289 288 284 280 281 284 280 277 279 280 280 282 283 282 282 282 280 279 279 280 280 279 278 275 272 269 263 261 264 265 264 264 264 264 262